Location: Karcze
(52.0945°N, 22.4786°E)
Time: 12:01:07
(UTC+00:00)

Cosmos 2360 Rocket - Pass Details

Date: 14 July 2020
Orbit: 832 x 846 km, 71.0° (Epoch: 07 August)

Event Time Altitude Azimuth Distance (km) Brightness Sun altitude
Rises 01:32:21 0° 330° (NNW) 3,419 5.6 -6.9°
Reaches altitude 10° 01:34:58 10° 338° (NNW) 2,481 5.0 -6.6°
Maximum altitude 01:40:19 40° 47° (NE) 1,238 3.9 -6.1°
Drops below altitude 10° 01:45:38 10° 117° (ESE) 2,469 4.9 -5.5°
Sets 01:48:13 0° 124° (SE) 3,399 5.5 -5.2°
